Location: Sungai Dangang
(2.7500°N, 113.8333°E)
Time: 04:23:44
(UTC+00:00)

Cosmos 2227 - Pass Details

Date: 16 May 2021
Orbit: 836 x 860 km, 71.0° (Epoch: 16 June)

Event Time Altitude Azimuth Distance (km) Brightness Sun altitude
Rises 20:16:08 0° 349° (N) 3,371 7.5 -28.2°
Reaches altitude 10° 20:18:34 10° 352° (N) 2,438 6.7 -27.7°
Maximum altitude 20:24:08 69° 75° (ENE) 891 4.4 -26.4°
Drops below altitude 10° 20:29:42 10° 157° (SSE) 2,445 6.6 -25.1°
Sets 20:32:09 0° 160° (SSE) 3,382 7.3 -24.6°
